| time (UTC) | temp F | wind direction | speed MPH | gust MPH | rain 1hr in | rain 24hr in | rain mn in | humidity % | barometer mb |
| 20260903110123 | 61 | 0.0 | 0.0 | 0.00 | 0.14 | 0.11 | 96 | 1009.2 | |
| 20260903104600 | 61 | 0.0 | 0.0 | 0.00 | 0.14 | 0.11 | 96 | 1009.2 | |
| 20260903103102 | 61 | 0.0 | 0.0 | 0.00 | 0.14 | 0.11 | 95 | 1009.5 | |
| 20260903101609 | 61 | 0.0 | 0.0 | 0.00 | 0.13 | 0.10 | 95 | 1009.8 | |
| 20260903094604 | 61 | 0.0 | 0.0 | 0.00 | 0.13 | 0.10 | 94 | 1010.3 | |
| 20260903093105 | 61 | 0.0 | 0.0 | 0.00 | 0.13 | 0.10 | 95 | 1010.7 | |
| 20260903091557 | 61 | 0.0 | 0.0 | 0.01 | 0.12 | 0.09 | 95 | 1010.7 | |
| 20260903090059 | 61 | 0.0 | 0.0 | 0.03 | 0.12 | 0.09 | 96 | 1010.9 | |
| 20260903084607 | 61 | 0.0 | 0.0 | 0.04 | 0.12 | 0.09 | 96 | 1011.1 | |
| 20260903083105 | 61 | 0.0 | 0.0 | 0.07 | 0.12 | 0.09 | 96 | 1011.2 | |
| 20260903081616 | 61 | 0.0 | 0.0 | 0.07 | 0.11 | 0.07 | 96 | 1011.4 | |
| 20260903080106 | 61 | 0.0 | 0.0 | 0.04 | 0.08 | 0.05 | 95 | 1011.5 | |
| 20260903074608 | 61 | 0.0 | 0.0 | 0.03 | 0.07 | 0.04 | 95 | 1011.6 | |
| 20260903073117 | 61 | 0.0 | 0.0 | 0.00 | 0.04 | 0.01 | 95 | 1011.7 | |
| 20260903071600 | 61 | 0.0 | 0.0 | 0.00 | 0.03 | 0.00 | 96 | 1011.8 | |
| 20260903070104 | 61 | 0.0 | 0.0 | 0.00 | 0.03 | 0.00 | 96 | 1011.9 | |
| 20260903064603 | 61 | 0.0 | 0.0 | 0.00 | 0.03 | 0.00 | 96 | 1012.0 | |
| 20260903063103 | 61 | 0.0 | 0.0 | 0.00 | 0.03 | 0.00 | 96 | 1012.1 | |
| 20260903061604 | 61 | 0.0 | 0.0 | 0.00 | 0.03 | 0.00 | 97 | 1012.3 | |
| 20260903060100 | 60 | 0.0 | 0.0 | 0.00 | 0.03 | 0.00 | 97 | 1012.4 | |
| 20260903054603 | 60 | 0.0 | 0.0 | 0.00 | 0.03 | 0.00 | 97 | 1012.7 | |
| 20260903053109 | 59 | 0.0 | 0.0 | 0.00 | 0.03 | 0.00 | 96 | 1012.8 | |
| 20260903051605 | 59 | 0.0 | 0.0 | 0.00 | 0.03 | 0.00 | 96 | 1012.8 | |
| 20260903050109 | 59 | 0.0 | 0.0 | 0.00 | 0.03 | 0.00 | 96 | 1013.0 | |
| 20260903044607 | 59 | 0.0 | 0.0 | 0.00 | 0.03 | 0.00 | 96 | 1013.0 | |
| 20260903043103 | 59 | 0.0 | 0.0 | 0.00 | 0.03 | 0.00 | 96 | 1013.0 | |
| 20260903041606 | 59 | 0.0 | 0.0 | 0.00 | 0.03 | 0.00 | 96 | 1013.1 | |
| 20260903040104 | 59 | 0.0 | 0.0 | 0.00 | 0.03 | 0.00 | 96 | 1013.3 | |
| 20260903034559 | 59 | 0.0 | 0.0 | 0.00 | 0.03 | 0.00 | 96 | 1013.4 | |
| 20260903033113 | 59 | 0.0 | 0.0 | 0.00 | 0.03 | 0.00 | 96 | 1013.5 | |
| 20260903031601 | 58 | 0.0 | 0.0 | 0.00 | 0.03 | 0.00 | 96 | 1013.5 | |
| 20260903030104 | 58 | 0.0 | 0.0 | 0.00 | 0.03 | 0.00 | 96 | 1013.6 | |
| 20260903024607 | 58 | 0.0 | 0.0 | 0.00 | 0.03 | 0.00 | 96 | 1013.7 | |
| 20260903023102 | 58 | 0.0 | 0.0 | 0.00 | 0.03 | 0.00 | 96 | 1013.8 | |
| 20260903021609 | 58 | 0.0 | 0.0 | 0.00 | 0.03 | 0.00 | 96 | 1013.8 | |
| 20260903020058 | 58 | 0.0 | 0.0 | 0.00 | 0.03 | 0.00 | 95 | 1014.3 | |
| 20260903014600 | 58 | 0.0 | 0.0 | 0.00 | 0.03 | 0.00 | 95 | 1014.4 | |
| 20260903013106 | 58 | 0.0 | 0.0 | 0.00 | 0.03 | 0.00 | 95 | 1014.4 | |
| 20260903011626 | 58 | 0.0 | 0.0 | 0.00 | 0.03 | 0.00 | 95 | 1014.6 | |
| 20260903010113 | 58 | 0.0 | 0.0 | 0.00 | 0.03 | 0.00 | 95 | 1014.6 | |
| 20260903004605 | 58 | 0.0 | 0.0 | 0.00 | 0.03 | 0.00 | 95 | 1014.5 | |
| 20260903003108 | 58 | 0.0 | 0.0 | 0.00 | 0.03 | 0.00 | 95 | 1014.6 | |
| 20260903001605 | 58 | 0.0 | 0.0 | 0.00 | 0.03 | 0.00 | 95 | 1014.7 | |
| 20260903000108 | 58 | 0.0 | 0.0 | 0.00 | 0.03 | 0.00 | 95 | 1014.7 | |
| 20260902234604 | 58 | 0.0 | 0.0 | 0.00 | 0.03 | 0.00 | 95 | 1014.7 | |
| 20260902233058 | 58 | 0.0 | 0.0 | 0.00 | 0.03 | 0.00 | 95 | 1014.7 | |
| 20260902231601 | 58 | 0.0 | 0.0 | 0.00 | 0.03 | 0.00 | 95 | 1014.6 | |
| 20260902230105 | 58 | 0.0 | 0.0 | 0.00 | 0.03 | 0.00 | 95 | 1014.8 | |
| 20260902224600 | 58 | 0.0 | 0.0 | 0.00 | 0.03 | 0.00 | 95 | 1014.9 | |
| 20260902223108 | 58 | 0.0 | 0.0 | 0.00 | 0.03 | 0.00 | 95 | 1014.8 | |
| 20260902221617 | 58 | 0.0 | 0.0 | 0.00 | 0.03 | 0.00 | 94 | 1014.7 | |
| 20260902220106 | 58 | 0.0 | 0.0 | 0.00 | 0.03 | 0.00 | 94 | 1014.6 | |
| 20260902214604 | 58 | 0.0 | 0.0 | 0.00 | 0.03 | 0.03 | 94 | 1014.6 | |
| 20260902213103 | 58 | 0.0 | 0.0 | 0.00 | 0.03 | 0.03 | 94 | 1014.6 | |
| 20260902211611 | 58 | 0.0 | 0.0 | 0.00 | 0.03 | 0.03 | 93 | 1014.7 | |
| 20260902210100 | 58 | 0.0 | 0.0 | 0.00 | 0.03 | 0.03 | 93 | 1014.5 | |
| 20260902204556 | 59 | 0.0 | 0.0 | 0.00 | 0.03 | 0.03 | 93 | 1014.6 | |
| 20260902203055 | 59 | 0.0 | 0.0 | 0.00 | 0.03 | 0.03 | 92 | 1014.6 | |
| 20260902201633 | 59 | 0.0 | 0.0 | 0.00 | 0.03 | 0.03 | 92 | 1014.6 | |
| 20260902200112 | 59 | 0.0 | 0.0 | 0.00 | 0.03 | 0.03 | 92 | 1014.8 | |
| 20260902194601 | 59 | 0.0 | 0.0 | 0.00 | 0.03 | 0.03 | 91 | 1014.9 | |
| 20260902193103 | 59 | 0.0 | 0.0 | 0.00 | 0.03 | 0.03 | 91 | 1014.9 | |
| 20260902191601 | 59 | 0.0 | 0.0 | 0.00 | 0.03 | 0.03 | 92 | 1014.7 | |
| 20260902190057 | 59 | 0.0 | 0.0 | 0.00 | 0.03 | 0.03 | 92 | 1014.7 | |
| 20260902184556 | 60 | 0.0 | 0.0 | 0.00 | 0.03 | 0.03 | 92 | 1014.5 | |
| 20260902183101 | 60 | 0.0 | 0.0 | 0.00 | 0.03 | 0.03 | 92 | 1014.4 | |
| 20260902181615 | 60 | 0.0 | 0.0 | 0.00 | 0.03 | 0.03 | 91 | 1014.5 | |
| 20260902174608 | 61 | 0.0 | 0.0 | 0.00 | 0.03 | 0.03 | 90 | 1014.5 | |
| 20260902173056 | 61 | 0.0 | 0.0 | 0.00 | 0.03 | 0.03 | 90 | 1014.5 | |
| 20260902171610 | 61 | 0.0 | 0.0 | 0.00 | 0.03 | 0.03 | 90 | 1014.7 | |
| 20260902170105 | 61 | 0.0 | 0.0 | 0.00 | 0.03 | 0.03 | 89 | 1014.7 | |
| 20260902164602 | 61 | 0.0 | 0.0 | 0.00 | 0.03 | 0.03 | 89 | 1014.7 | |
| 20260902163100 | 62 | 0.0 | 0.0 | 0.00 | 0.03 | 0.03 | 88 | 1014.7 | |
| 20260902161604 | 62 | 0.0 | 0.0 | 0.00 | 0.03 | 0.03 | 87 | 1014.9 | |
| 20260902154614 | 62 | 0.0 | 0.0 | 0.03 | 0.04 | 0.03 | 90 | 1014.9 | |
| 20260902153101 | 61 | 0.0 | 0.0 | 0.03 | 0.04 | 0.03 | 89 | 1014.8 | |
| 20260902151618 | 62 | 0.0 | 0.0 | 0.02 | 0.03 | 0.02 | 86 | 1014.9 | |
| 20260902150057 | 64 | 0.0 | 0.0 | 0.01 | 0.03 | 0.01 | 83 | 1014.9 | |
| 20260902144555 | 67 | 0.0 | 0.0 | 0.00 | 0.01 | 0.00 | 79 | 1014.9 | |
| 20260902143100 | 68 | 0.0 | 0.0 | 0.00 | 0.01 | 0.00 | 76 | 1014.7 | |
| 20260902141558 | 68 | 0.0 | 0.0 | 0.00 | 0.01 | 0.00 | 73 | 1014.7 | |
| 20260902134616 | 69 | 0.0 | 0.0 | 0.00 | 0.01 | 0.00 | 69 | 1014.9 | |
| 20260902133105 | 69 | 0.0 | 0.0 | 0.00 | 0.01 | 0.00 | 72 | 1014.8 | |
| 20260902131559 | 69 | 0.0 | 0.0 | 0.00 | 0.01 | 0.00 | 74 | 1015.0 | |
| 20260902130103 | 69 | 0.0 | 0.0 | 0.00 | 0.01 | 0.00 | 75 | 1014.9 | |
| 20260902124605 | 67 | 0.0 | 0.0 | 0.00 | 0.01 | 0.00 | 76 | 1015.1 | |
| 20260902123056 | 68 | 0.0 | 0.0 | 0.00 | 0.01 | 0.00 | 74 | 1015.1 | |
| 20260902121603 | 69 | 0.0 | 0.0 | 0.00 | 0.01 | 0.00 | 72 | 1015.0 | |
| 20260902120107 | 69 | 0.0 | 0.0 | 0.00 | 0.01 | 0.00 | 71 | 1015.0 | |
| 20260902114603 | 70 | 0.0 | 0.0 | 0.00 | 0.01 | 0.00 | 71 | 1015.0 | |
| 20260902113052 | 69 | 0.0 | 0.0 | 0.00 | 0.01 | 0.00 | 70 | 1015.1 | |
| 20260902111600 | 70 | 0.0 | 0.0 | 0.00 | 0.01 | 0.00 | 68 | 1015.2 |